Location: Hartford
(41.7640°N, 72.6860°W)
Time: 07:22:35
(UTC-04:00)

ISS - All Passes

Search period start: 22 July 2014 00:00
Search period end: 01 August 2014 00:00
Orbit: 413 x 420 km, 51.6° (Epoch: 22 July)

Date Brightness Start Highest point End Pass type
(mag) Time Alt. Az. Time Alt. Az. Time Alt. Az.
22 Jul - 01:24:08 10° SSE 01:25:52 14° SE 01:27:36 10° E visible
22 Jul - 02:58:51 10° WSW 03:02:12 73° NNW 03:05:34 10° NE visible
22 Jul - 04:36:50 10° WNW 04:39:23 20° NNW 04:41:56 10° NE visible
22 Jul - 06:14:55 10° NW 06:17:04 16° N 06:19:13 10° NE daylight
22 Jul - 07:51:26 10° NW 07:54:33 34° NNE 07:57:40 10° E daylight
22 Jul - 09:28:12 10° WNW 09:31:18 34° SW 09:34:22 10° SSE daylight
23 Jul - 02:10:23 10° SW 02:13:42 65° SE 02:17:03 10° ENE visible
23 Jul - 03:47:52 10° WNW 03:50:41 24° NNW 03:53:31 10° NE visible
23 Jul - 05:26:14 10° NW 05:28:18 15° N 05:30:22 10° NE daylight
23 Jul - 07:03:02 10° NW 07:05:54 25° NNE 07:08:46 10° ENE daylight
23 Jul - 08:39:32 10° WNW 08:42:52 62° SW 08:46:11 10° SE daylight
24 Jul - 01:22:10 10° SSW 01:25:16 36° SE 01:28:24 10° ENE visible
24 Jul - 02:58:57 10° W 03:02:02 33° NNW 03:05:07 10° NE visible
24 Jul - 04:37:24 10° NW 04:39:32 16° N 04:41:40 10° NE visible
24 Jul - 06:14:37 10° NW 06:17:12 20° NNE 06:19:47 10° ENE daylight
24 Jul - 07:51:00 10° NW 07:54:23 77° NE 07:57:44 10° ESE daylight
24 Jul - 09:29:06 10° WSW 09:30:41 13° SW 09:32:16 10° SSW daylight
25 Jul - 00:34:17 10° S 00:36:53 21° SE 00:39:31 10° E visible
25 Jul - 02:10:10 10° WSW 02:13:25 48° NNW 02:16:42 10° NE visible
25 Jul - 03:48:26 10° NW 03:50:46 17° N 03:53:05 10° NNE visible
25 Jul - 05:26:09 10° NNW 05:28:28 17° N 05:30:47 10° NE daylight
25 Jul - 07:02:32 10° NW 07:05:49 47° NNE 07:09:05 10° ESE daylight
25 Jul - 08:39:42 10° W 08:42:22 22° SW 08:45:01 10° S daylight
25 Jul - 23:47:06 10° SSE 23:48:34 12° SE 23:50:02 10° ESE night (unlit)
26 Jul - 01:21:31 10° WSW 01:24:52 79° NW 01:28:14 10° NE visible
26 Jul - 02:59:26 10° WNW 03:02:01 20° NNW 03:04:37 10° NE visible
26 Jul - 04:37:34 10° NW 04:39:42 16° N 04:41:50 10° NE visible
26 Jul - 06:14:07 10° NW 06:17:12 32° NNE 06:20:16 10° E daylight
26 Jul - 07:50:50 10° WNW 07:53:59 38° SW 07:57:06 10° SSE daylight
27 Jul - 00:33:04 10° SW 00:36:22 60° SE 00:39:41 10° ENE visible
27 Jul - 02:10:27 10° W 02:13:19 25° NNW 02:16:11 10° NE visible
27 Jul - 03:48:51 10° NW 03:50:55 15° N 03:52:59 10° NE visible
27 Jul - 05:25:42 10° NW 05:28:32 24° NNE 05:31:21 10° ENE daylight
27 Jul - 07:02:10 10° WNW 07:05:31 67° SW 07:08:51 10° SE daylight
27 Jul - 23:44:53 10° SSW 23:47:55 33° SE 23:50:59 10° ENE night (unlit)
28 Jul - 01:21:33 10° W 01:24:39 34° NNW 01:27:46 10° NE visible
28 Jul - 02:59:58 10° NW 03:02:07 16° N 03:04:17 10° NE visible
28 Jul - 04:37:16 10° NW 04:39:48 19° NNE 04:42:21 10° ENE visible
28 Jul - 06:13:38 10° NW 06:17:00 71° NNE 06:20:21 10° ESE daylight
28 Jul - 07:51:31 10° W 07:53:21 14° SW 07:55:11 10° SSW daylight
28 Jul - 22:57:03 10° S 22:59:32 20° SE 23:02:02 10° E night (unlit)
29 Jul - 00:32:45 10° WSW 00:36:02 52° NNW 00:39:20 10° NE visible
29 Jul - 02:10:59 10° NW 02:13:21 18° N 02:15:42 10° NNE visible
29 Jul - 03:48:46 10° NNW 03:51:03 17° N 03:53:20 10° NE visible
29 Jul - 05:25:10 10° NW 05:28:25 44° NNE 05:31:40 10° ESE daylight
29 Jul - 07:02:14 10° W 07:05:00 24° SW 07:07:45 10° S daylight
29 Jul - 22:10:07 10° SSE 22:11:13 11° SE 22:12:19 10° ESE night (unlit)
29 Jul - 23:44:08 10° SW 23:47:28 86° NNW 23:50:50 10° NE night (unlit)
30 Jul - 01:21:58 10° WNW 01:24:36 21° NNW 01:27:13 10° NE visible
30 Jul - 03:00:09 10° NW 03:02:16 15° N 03:04:22 10° NE visible
30 Jul - 04:36:44 10° NW 04:39:47 30° NNE 04:42:49 10° E visible
30 Jul - 06:13:24 10° WNW 06:16:35 41° SW 06:19:46 10° SSE daylight
30 Jul - 22:55:42 10° SW 22:58:58 54° SE 23:02:15 10° ENE night (unlit)
31 Jul - 00:32:59 10° W 00:35:53 26° NNW 00:38:47 10° NE visible
31 Jul - 02:11:24 10° NW 02:13:27 15° N 02:15:31 10° NE visible
31 Jul - 03:48:19 10° NW 03:51:05 23° NNE 03:53:51 10° ENE visible
31 Jul - 05:24:45 10° WNW 05:28:07 74° SW 05:31:27 10° SE daylight
31 Jul - 22:07:32 10° SSW 22:10:31 31° SE 22:13:31 10° ENE night (unlit)
31 Jul - 23:44:04 10° W 23:47:12 36° NNW 23:50:21 10° NE visible
